| time (UTC) | temp C | wind direction | speed KPH | gust KPH | rain 1hr cm | rain 24hr cm | rain mn cm | humidity % | barometer mb |
| 20260506225532 | 24 | 181 | 9.7 | 12.9 | 0.00 | 0.00 | 0.00 | 73 | 1009.3 |
| 20260506225028 | 23 | 192 | 8.0 | 11.3 | 0.00 | 0.00 | 0.00 | 74 | 1009.3 |
| 20260506224525 | 23 | 216 | 6.4 | 8.0 | 0.00 | 0.00 | 0.00 | 77 | 1009.4 |
| 20260506224022 | 23 | 179 | 4.8 | 4.8 | 0.00 | 0.00 | 0.00 | 78 | 1009.4 |
| 20260506223517 | 23 | 160 | 1.6 | 1.6 | 0.00 | 0.00 | 0.00 | 77 | 1009.4 |
| 20260506223014 | 23 | 169 | 6.4 | 8.0 | 0.00 | 0.00 | 0.00 | 75 | 1009.5 |
| 20260506222511 | 23 | 219 | 1.6 | 3.2 | 0.00 | 0.00 | 0.00 | 76 | 1009.3 |
| 20260506222008 | 24 | 207 | 1.6 | 3.2 | 0.00 | 0.00 | 0.00 | 76 | 1009.5 |
| 20260506221505 | 23 | 206 | 1.6 | 1.6 | 0.00 | 0.00 | 0.00 | 75 | 1009.4 |
| 20260506221003 | 23 | 250 | 1.6 | 3.2 | 0.00 | 0.00 | 0.00 | 75 | 1009.4 |
| 20260506220458 | 23 | 199 | 1.6 | 1.6 | 0.00 | 0.00 | 0.00 | 76 | 1009.6 |
| 20260506215954 | 23 | 189 | 6.4 | 8.0 | 0.00 | 0.00 | 0.00 | 76 | 1009.5 |
| 20260506215451 | 23 | 195 | 1.6 | 3.2 | 0.00 | 0.00 | 0.00 | 77 | 1009.6 |
| 20260506214947 | 23 | 222 | 1.6 | 1.6 | 0.00 | 0.00 | 0.00 | 76 | 1009.5 |
| 20260506214444 | 24 | 211 | 4.8 | 4.8 | 0.00 | 0.00 | 0.00 | 73 | 1009.4 |
| 20260506213942 | 24 | 164 | 3.2 | 8.0 | 0.00 | 0.00 | 0.00 | 74 | 1010.0 |
| 20260506213439 | 24 | 210 | 1.6 | 1.6 | 0.00 | 0.00 | 0.00 | 73 | 1009.7 |
| 20260506212936 | 23 | 208 | 6.4 | 8.0 | 0.00 | 0.00 | 0.00 | 72 | 1010.0 |
| 20260506212432 | 24 | 168 | 1.6 | 1.6 | 0.00 | 0.00 | 0.00 | 73 | 1010.1 |
| 20260506211932 | 25 | 218 | 1.6 | 1.6 | 0.00 | 0.00 | 0.00 | 69 | 1009.8 |
| 20260506211428 | 25 | 199 | 1.6 | 3.2 | 0.00 | 0.00 | 0.00 | 69 | 1009.2 |
| 20260506210926 | 25 | 166 | 1.6 | 4.8 | 0.00 | 0.00 | 0.00 | 68 | 1009.9 |
| 20260506210422 | 25 | 208 | 1.6 | 3.2 | 0.00 | 0.00 | 0.00 | 69 | 1009.8 |
| 20260506205919 | 25 | 207 | 1.6 | 1.6 | 0.00 | 0.00 | 0.00 | 70 | 1010.1 |
| 20260506205415 | 25 | 219 | 0.0 | 1.6 | 0.00 | 0.00 | 0.00 | 70 | 1010.3 |
| 20260506204912 | 25 | 200 | 4.8 | 4.8 | 0.00 | 0.00 | 0.00 | 69 | 1010.4 |
| 20260506204410 | 25 | 167 | 0.0 | 1.6 | 0.00 | 0.00 | 0.00 | 69 | 1010.5 |
| 20260506203907 | 25 | 170 | 3.2 | 4.8 | 0.00 | 0.00 | 0.00 | 68 | 1010.4 |
| 20260506203404 | 25 | 217 | 3.2 | 4.8 | 0.00 | 0.00 | 0.00 | 67 | 1010.5 |
| 20260506202901 | 25 | 222 | 1.6 | 1.6 | 0.00 | 0.00 | 0.00 | 67 | 1010.7 |
| 20260506202358 | 25 | 216 | 0.0 | 1.6 | 0.00 | 0.00 | 0.00 | 69 | 1010.5 |
| 20260506201854 | 25 | 257 | 1.6 | 1.6 | 0.00 | 0.00 | 0.00 | 69 | 1010.7 |
| 20260506201352 | 25 | 218 | 0.0 | 1.6 | 0.00 | 0.00 | 0.00 | 70 | 1010.8 |
| 20260506200848 | 24 | 197 | 3.2 | 3.2 | 0.00 | 0.00 | 0.00 | 69 | 1010.6 |
| 20260506200344 | 25 | 171 | 4.8 | 4.8 | 0.00 | 0.00 | 0.00 | 71 | 1010.8 |
| 20260506195840 | 25 | 175 | 4.8 | 8.0 | 0.00 | 0.00 | 0.00 | 68 | 1010.7 |
| 20260506195338 | 25 | 223 | 0.0 | 0.0 | 0.00 | 0.00 | 0.00 | 70 | 1011.0 |
| 20260506194835 | 25 | 177 | 4.8 | 8.0 | 0.00 | 0.00 | 0.00 | 70 | 1011.1 |
| 20260506194331 | 24 | 80 | 0.0 | 0.0 | 0.00 | 0.00 | 0.00 | 71 | 1011.1 |
| 20260506193829 | 25 | 158 | 3.2 | 3.2 | 0.00 | 0.00 | 0.00 | 71 | 1011.1 |
| 20260506193326 | 25 | 168 | 4.8 | 4.8 | 0.00 | 0.00 | 0.00 | 67 | 1011.4 |
| 20260506192822 | 25 | 318 | 1.6 | 3.2 | 0.00 | 0.00 | 0.00 | 67 | 1011.4 |
| 20260506192319 | 25 | 181 | 3.2 | 3.2 | 0.00 | 0.00 | 0.00 | 68 | 1011.4 |
| 20260506191816 | 25 | 177 | 0.0 | 1.6 | 0.00 | 0.00 | 0.00 | 68 | 1011.5 |
| 20260506191312 | 25 | 181 | 3.2 | 3.2 | 0.00 | 0.00 | 0.00 | 68 | 1011.7 |
| 20260506190809 | 25 | 281 | 1.6 | 1.6 | 0.00 | 0.00 | 0.00 | 66 | 1011.4 |
| 20260506190306 | 25 | 175 | 1.6 | 4.8 | 0.00 | 0.00 | 0.00 | 66 | 1011.8 |
| 20260506185803 | 25 | 161 | 1.6 | 1.6 | 0.00 | 0.00 | 0.00 | 68 | 1011.8 |
| 20260506185259 | 25 | 214 | 3.2 | 3.2 | 0.00 | 0.00 | 0.00 | 67 | 1011.8 |
| 20260506184756 | 25 | 180 | 4.8 | 8.0 | 0.00 | 0.00 | 0.00 | 68 | 1011.8 |
| 20260506184254 | 25 | 249 | 0.0 | 0.0 | 0.00 | 0.00 | 0.00 | 70 | 1011.7 |
| 20260506183751 | 25 | 207 | 3.2 | 4.8 | 0.00 | 0.00 | 0.00 | 67 | 1011.6 |
| 20260506183251 | 25 | 240 | 6.4 | 8.0 | 0.00 | 0.00 | 0.00 | 68 | 1011.9 |
| 20260506182749 | 25 | 230 | 0.0 | 0.0 | 0.00 | 0.00 | 0.00 | 67 | 1011.9 |
| 20260506182246 | 25 | 182 | 4.8 | 4.8 | 0.00 | 0.00 | 0.00 | 69 | 1012.0 |
| 20260506181743 | 25 | 180 | 3.2 | 3.2 | 0.00 | 0.00 | 0.00 | 67 | 1012.2 |
| 20260506181241 | 25 | 199 | 3.2 | 4.8 | 0.00 | 0.00 | 0.00 | 67 | 1012.4 |
| 20260506180738 | 25 | 173 | 3.2 | 3.2 | 0.00 | 0.00 | 0.00 | 67 | 1012.4 |
| 20260506180234 | 26 | 212 | 3.2 | 8.0 | 0.00 | 0.00 | 0.00 | 66 | 1012.6 |
| 20260506175730 | 26 | 263 | 1.6 | 1.6 | 0.00 | 0.00 | 0.00 | 64 | 1012.5 |
| 20260506175227 | 25 | 181 | 6.4 | 11.3 | 0.00 | 0.00 | 0.00 | 65 | 1012.5 |
| 20260506174725 | 25 | 168 | 3.2 | 4.8 | 0.00 | 0.00 | 0.00 | 66 | 1012.5 |
| 20260506174221 | 25 | 172 | 8.0 | 9.7 | 0.00 | 0.00 | 0.00 | 66 | 1012.5 |
| 20260506173719 | 25 | 180 | 4.8 | 8.0 | 0.00 | 0.00 | 0.00 | 67 | 1012.7 |
| 20260506173216 | 25 | 171 | 6.4 | 8.0 | 0.00 | 0.00 | 0.00 | 67 | 1012.4 |
| 20260506172713 | 25 | 169 | 6.4 | 12.9 | 0.00 | 0.00 | 0.00 | 66 | 1012.5 |
| 20260506172209 | 25 | 212 | 3.2 | 3.2 | 0.00 | 0.00 | 0.00 | 63 | 1012.7 |
| 20260506171707 | 25 | 207 | 6.4 | 9.7 | 0.00 | 0.00 | 0.00 | 67 | 1012.6 |
| 20260506171204 | 25 | 195 | 8.0 | 9.7 | 0.00 | 0.00 | 0.00 | 68 | 1012.6 |
| 20260506170702 | 24 | 226 | 3.2 | 3.2 | 0.00 | 0.00 | 0.00 | 69 | 1012.4 |
| 20260506170158 | 24 | 167 | 4.8 | 9.7 | 0.00 | 0.00 | 0.00 | 69 | 1012.7 |
| 20260506165657 | 25 | 169 | 8.0 | 11.3 | 0.00 | 0.00 | 0.00 | 68 | 1012.7 |
| 20260506165153 | 25 | 270 | 3.2 | 3.2 | 0.00 | 0.00 | 0.00 | 67 | 1012.8 |
| 20260506164650 | 24 | 210 | 8.0 | 11.3 | 0.00 | 0.00 | 0.00 | 68 | 1012.9 |
| 20260506164148 | 25 | 181 | 6.4 | 9.7 | 0.00 | 0.00 | 0.00 | 69 | 1013.1 |
| 20260506163644 | 24 | 207 | 11.3 | 12.9 | 0.00 | 0.00 | 0.00 | 70 | 1013.1 |
| 20260506163139 | 24 | 204 | 8.0 | 9.7 | 0.00 | 0.00 | 0.00 | 72 | 1013.3 |
| 20260506162635 | 23 | 206 | 1.6 | 3.2 | 0.00 | 0.00 | 0.00 | 72 | 1013.4 |
| 20260506162133 | 23 | 193 | 6.4 | 9.7 | 0.00 | 0.00 | 0.00 | 73 | 1013.4 |
| 20260506161630 | 23 | 181 | 6.4 | 9.7 | 0.00 | 0.00 | 0.00 | 74 | 1013.6 |
| 20260506161127 | 23 | 177 | 6.4 | 8.0 | 0.00 | 0.00 | 0.00 | 74 | 1013.7 |
| 20260506160624 | 23 | 176 | 4.8 | 8.0 | 0.00 | 0.00 | 0.00 | 74 | 1013.8 |
| 20260506160121 | 23 | 156 | 4.8 | 4.8 | 0.00 | 0.00 | 0.00 | 74 | 1014.1 |
| 20260506155620 | 23 | 177 | 3.2 | 3.2 | 0.00 | 0.00 | 0.00 | 74 | 1014.2 |
| 20260506155116 | 22 | 123 | 3.2 | 4.8 | 0.00 | 0.00 | 0.00 | 75 | 1014.2 |
| 20260506153219 | 22 | 170 | 3.2 | 3.2 | 0.00 | 0.00 | 0.00 | 76 | 1014.2 |
| 20260506152715 | 22 | 180 | 4.8 | 4.8 | 0.00 | 0.00 | 0.00 | 77 | 1014.2 |
| 20260506152213 | 22 | 155 | 6.4 | 8.0 | 0.00 | 0.00 | 0.00 | 78 | 1014.3 |
| 20260506151712 | 22 | 177 | 1.6 | 1.6 | 0.00 | 0.00 | 0.00 | 77 | 1014.5 |
| 20260506151208 | 22 | 165 | 8.0 | 9.7 | 0.00 | 0.00 | 0.00 | 77 | 1014.1 |
| 20260506150704 | 22 | 108 | 4.8 | 8.0 | 0.00 | 0.00 | 0.00 | 77 | 1014.4 |
| 20260506150201 | 22 | 171 | 1.6 | 1.6 | 0.00 | 0.00 | 0.00 | 77 | 1014.6 |
| 20260506145658 | 22 | 189 | 3.2 | 3.2 | 0.00 | 0.00 | 0.00 | 77 | 1014.5 |
| 20260506145155 | 22 | 175 | 4.8 | 8.0 | 0.00 | 0.00 | 0.00 | 76 | 1014.6 |
| 20260506144653 | 22 | 255 | 3.2 | 8.0 | 0.00 | 0.00 | 0.00 | 76 | 1014.6 |
| 20260506144149 | 22 | 100 | 3.2 | 4.8 | 0.00 | 0.00 | 0.00 | 75 | 1014.2 |
| 20260506143647 | 22 | 187 | 6.4 | 11.3 | 0.00 | 0.00 | 0.00 | 74 | 1014.3 |
| 20260506143145 | 22 | 180 | 8.0 | 9.7 | 0.00 | 0.00 | 0.00 | 74 | 1014.3 |
| 20260506142643 | 22 | 143 | 4.8 | 9.7 | 0.00 | 0.00 | 0.00 | 74 | 1014.2 |
| 20260506142140 | 22 | 200 | 9.7 | 12.9 | 0.00 | 0.00 | 0.00 | 73 | 1013.8 |
| 20260506141638 | 22 | 180 | 6.4 | 8.0 | 0.00 | 0.00 | 0.00 | 72 | 1014.1 |
| 20260506141136 | 22 | 185 | 4.8 | 9.7 | 0.00 | 0.00 | 0.00 | 73 | 1014.0 |
| 20260506140633 | 22 | 196 | 6.4 | 11.3 | 0.00 | 0.00 | 0.00 | 73 | 1014.0 |
| 20260506140130 | 22 | 203 | 1.6 | 3.2 | 0.00 | 0.00 | 0.00 | 74 | 1014.0 |
| 20260506135627 | 22 | 165 | 3.2 | 4.8 | 0.00 | 0.00 | 0.00 | 74 | 1014.0 |
| 20260506135123 | 22 | 206 | 4.8 | 8.0 | 0.00 | 0.00 | 0.00 | 74 | 1013.9 |
| 20260506134620 | 22 | 177 | 6.4 | 11.3 | 0.00 | 0.00 | 0.00 | 74 | 1013.9 |
| 20260506134116 | 22 | 189 | 4.8 | 8.0 | 0.00 | 0.00 | 0.00 | 74 | 1014.0 |
| 20260506133614 | 22 | 179 | 6.4 | 9.7 | 0.00 | 0.00 | 0.00 | 75 | 1014.0 |
| 20260506133110 | 22 | 201 | 4.8 | 8.0 | 0.00 | 0.00 | 0.00 | 77 | 1014.0 |
| 20260506132608 | 21 | 191 | 6.4 | 9.7 | 0.00 | 0.00 | 0.00 | 77 | 1014.0 |
| 20260506132104 | 21 | 214 | 8.0 | 11.3 | 0.00 | 0.00 | 0.00 | 78 | 1014.0 |
| 20260506131602 | 21 | 193 | 4.8 | 8.0 | 0.00 | 0.00 | 0.00 | 79 | 1013.9 |
| 20260506131058 | 21 | 154 | 6.4 | 8.0 | 0.00 | 0.00 | 0.00 | 79 | 1013.8 |
| 20260506130555 | 21 | 159 | 6.4 | 9.7 | 0.00 | 0.00 | 0.00 | 79 | 1014.0 |
| 20260506130053 | 21 | 172 | 3.2 | 9.7 | 0.00 | 0.00 | 0.00 | 81 | 1014.0 |
| 20260506125551 | 20 | 165 | 4.8 | 8.0 | 0.00 | 0.00 | 0.00 | 81 | 1014.2 |
| 20260506125048 | 20 | 184 | 4.8 | 8.0 | 0.00 | 0.00 | 0.00 | 82 | 1014.2 |
| 20260506124546 | 20 | 196 | 6.4 | 9.7 | 0.00 | 0.00 | 0.00 | 82 | 1014.2 |
| 20260506124043 | 20 | 232 | 3.2 | 3.2 | 0.00 | 0.00 | 0.00 | 83 | 1014.4 |
| 20260506123541 | 20 | 202 | 3.2 | 4.8 | 0.00 | 0.00 | 0.00 | 83 | 1014.7 |
| 20260506123039 | 20 | 158 | 4.8 | 8.0 | 0.00 | 0.00 | 0.00 | 83 | 1014.4 |
| 20260506122535 | 20 | 180 | 0.0 | 1.6 | 0.00 | 0.00 | 0.00 | 84 | 1014.3 |
| 20260506122034 | 19 | 243 | 4.8 | 4.8 | 0.00 | 0.00 | 0.00 | 84 | 1014.3 |
| 20260506121531 | 19 | 158 | 1.6 | 3.2 | 0.00 | 0.00 | 0.00 | 85 | 1014.4 |
| 20260506121027 | 18 | 193 | 4.8 | 8.0 | 0.00 | 0.00 | 0.00 | 85 | 1014.3 |
| 20260506120525 | 18 | 184 | 4.8 | 8.0 | 0.00 | 0.00 | 0.00 | 86 | 1014.5 |
| 20260506120022 | 18 | 186 | 3.2 | 4.8 | 0.00 | 0.00 | 0.00 | 86 | 1014.7 |
| 20260506115520 | 18 | 189 | 1.6 | 1.6 | 0.00 | 0.00 | 0.00 | 86 | 1014.4 |
| 20260506115018 | 18 | 171 | 6.4 | 8.0 | 0.00 | 0.00 | 0.00 | 86 | 1014.4 |
| 20260506114515 | 18 | 210 | 1.6 | 3.2 | 0.00 | 0.00 | 0.00 | 86 | 1014.5 |
| 20260506114014 | 18 | 218 | 1.6 | 1.6 | 0.00 | 0.00 | 0.00 | 87 | 1014.9 |
| 20260506113511 | 18 | 207 | 4.8 | 4.8 | 0.00 | 0.00 | 0.00 | 87 | 1014.5 |
| 20260506113008 | 18 | 187 | 1.6 | 1.6 | 0.00 | 0.00 | 0.00 | 87 | 1014.4 |
| 20260506112505 | 18 | 208 | 4.8 | 8.0 | 0.00 | 0.00 | 0.00 | 87 | 1014.1 |
| 20260506112002 | 18 | 149 | 4.8 | 4.8 | 0.00 | 0.00 | 0.00 | 88 | 1014.3 |
| 20260506111500 | 17 | 177 | 6.4 | 9.7 | 0.00 | 0.00 | 0.00 | 88 | 1014.4 |
| 20260506110957 | 17 | 182 | 4.8 | 8.0 | 0.00 | 0.00 | 0.00 | 89 | 1014.4 |
| 20260506110455 | 17 | 182 | 3.2 | 3.2 | 0.00 | 0.00 | 0.00 | 89 | 1014.1 |
| 20260506105951 | 17 | 203 | 4.8 | 4.8 | 0.00 | 0.00 | 0.00 | 89 | 1014.0 |
| 20260506105447 | 17 | 203 | 4.8 | 4.8 | 0.00 | 0.00 | 0.00 | 89 | 1014.1 |
| 20260506104945 | 17 | 160 | 4.8 | 4.8 | 0.00 | 0.00 | 0.00 | 89 | 1014.2 |
| 20260506104443 | 17 | 150 | 0.0 | 1.6 | 0.00 | 0.00 | 0.00 | 89 | 1014.3 |
| 20260506103941 | 17 | 201 | 4.8 | 4.8 | 0.00 | 0.00 | 0.00 | 90 | 1014.5 |
| 20260506103438 | 17 | 166 | 1.6 | 3.2 | 0.00 | 0.00 | 0.00 | 89 | 1014.4 |
| 20260506102935 | 17 | 148 | 3.2 | 3.2 | 0.00 | 0.00 | 0.00 | 90 | 1014.4 |
| 20260506102433 | 17 | 174 | 4.8 | 4.8 | 0.00 | 0.00 | 0.00 | 89 | 1014.4 |
| 20260506101930 | 17 | 161 | 3.2 | 4.8 | 0.00 | 0.00 | 0.00 | 89 | 1014.4 |
| 20260506101426 | 17 | 191 | 4.8 | 4.8 | 0.00 | 0.00 | 0.00 | 89 | 1014.2 |
| 20260506100924 | 17 | 187 | 1.6 | 1.6 | 0.00 | 0.00 | 0.00 | 90 | 1014.2 |
| 20260506100422 | 17 | 172 | 1.6 | 1.6 | 0.00 | 0.00 | 0.00 | 90 | 1013.9 |
| 20260506095919 | 17 | 146 | 1.6 | 1.6 | 0.00 | 0.00 | 0.00 | 90 | 1014.0 |
| 20260506095418 | 17 | 160 | 1.6 | 3.2 | 0.00 | 0.00 | 0.00 | 89 | 1013.9 |
| 20260506094914 | 17 | 148 | 3.2 | 4.8 | 0.00 | 0.00 | 0.00 | 89 | 1014.0 |
| 20260506094412 | 17 | 186 | 3.2 | 4.8 | 0.00 | 0.00 | 0.00 | 89 | 1014.0 |
| 20260506093910 | 17 | 192 | 4.8 | 4.8 | 0.00 | 0.00 | 0.00 | 89 | 1014.1 |
| 20260506093407 | 17 | 187 | 3.2 | 4.8 | 0.00 | 0.00 | 0.00 | 88 | 1014.0 |
| 20260506092905 | 17 | 173 | 1.6 | 3.2 | 0.00 | 0.00 | 0.00 | 88 | 1014.1 |
| 20260506092403 | 17 | 232 | 0.0 | 1.6 | 0.00 | 0.00 | 0.00 | 88 | 1014.1 |
| 20260506091859 | 17 | 181 | 3.2 | 4.8 | 0.00 | 0.00 | 0.00 | 88 | 1014.3 |
| 20260506091357 | 17 | 174 | 4.8 | 4.8 | 0.00 | 0.00 | 0.00 | 88 | 1014.2 |
| 20260506090854 | 17 | 186 | 1.6 | 3.2 | 0.00 | 0.00 | 0.00 | 88 | 1014.2 |
| 20260506090352 | 17 | 187 | 1.6 | 3.2 | 0.00 | 0.00 | 0.00 | 88 | 1014.5 |
| 20260506085848 | 17 | 150 | 1.6 | 1.6 | 0.00 | 0.00 | 0.00 | 88 | 1014.4 |
| 20260506085344 | 17 | 212 | 1.6 | 1.6 | 0.00 | 0.00 | 0.00 | 88 | 1014.6 |
| 20260506084841 | 17 | 185 | 1.6 | 1.6 | 0.00 | 0.00 | 0.00 | 88 | 1014.4 |
| 20260506084338 | 17 | 210 | 3.2 | 3.2 | 0.00 | 0.00 | 0.00 | 87 | 1014.5 |
| 20260506083834 | 17 | 239 | 0.0 | 1.6 | 0.00 | 0.00 | 0.00 | 88 | 1014.5 |
| 20260506083332 | 17 | 179 | 3.2 | 3.2 | 0.00 | 0.00 | 0.00 | 88 | 1014.5 |
| 20260506082829 | 17 | 186 | 1.6 | 3.2 | 0.00 | 0.00 | 0.00 | 88 | 1014.2 |
| 20260506082326 | 17 | 165 | 3.2 | 3.2 | 0.00 | 0.00 | 0.00 | 88 | 1014.3 |
| 20260506081822 | 17 | 207 | 1.6 | 3.2 | 0.00 | 0.00 | 0.00 | 88 | 1014.3 |
| 20260506081320 | 17 | 168 | 4.8 | 4.8 | 0.00 | 0.00 | 0.00 | 88 | 1014.4 |
| 20260506080817 | 17 | 197 | 1.6 | 1.6 | 0.00 | 0.00 | 0.00 | 88 | 1014.3 |
| 20260506080313 | 17 | 209 | 6.4 | 8.0 | 0.00 | 0.00 | 0.00 | 88 | 1014.1 |
| 20260506073258 | 17 | 177 | 4.8 | 4.8 | 0.00 | 0.00 | 0.00 | 87 | 1014.1 |
| 20260506072754 | 17 | 208 | 4.8 | 4.8 | 0.00 | 0.00 | 0.00 | 88 | 1014.2 |
| 20260506072252 | 17 | 151 | 3.2 | 3.2 | 0.00 | 0.00 | 0.00 | 87 | 1014.3 |
| 20260506071750 | 17 | 273 | 0.0 | 1.6 | 0.00 | 0.00 | 0.00 | 88 | 1014.2 |
| 20260506071247 | 18 | 179 | 6.4 | 8.0 | 0.00 | 0.00 | 0.00 | 88 | 1014.1 |
| 20260506070744 | 18 | 173 | 6.4 | 8.0 | 0.00 | 0.00 | 0.00 | 87 | 1014.3 |
| 20260506070241 | 18 | 190 | 6.4 | 8.0 | 0.00 | 0.00 | 0.00 | 87 | 1014.3 |
| 20260506062218 | 18 | 204 | 1.6 | 3.2 | 0.00 | 0.00 | 0.00 | 86 | 1014.5 |
| 20260506061714 | 18 | 170 | 6.4 | 9.7 | 0.00 | 0.00 | 0.00 | 86 | 1014.6 |
| 20260506061212 | 18 | 194 | 6.4 | 9.7 | 0.00 | 0.00 | 0.00 | 86 | 1014.8 |
| 20260506060710 | 18 | 193 | 3.2 | 4.8 | 0.00 | 0.00 | 0.00 | 86 | 1014.7 |
| 20260506060207 | 18 | 201 | 3.2 | 4.8 | 0.00 | 0.00 | 0.00 | 86 | 1015.0 |
| 20260506051139 | 18 | 165 | 1.6 | 1.6 | 0.00 | 0.00 | 0.00 | 86 | 1015.3 |
| 20260506050637 | 18 | 191 | 1.6 | 1.6 | 0.00 | 0.00 | 0.00 | 86 | 1015.6 |
| 20260506050134 | 18 | 153 | 0.0 | 1.6 | 0.00 | 0.00 | 0.00 | 86 | 1015.4 |
| 20260506045127 | 18 | 177 | 3.2 | 3.2 | 0.00 | 0.00 | 0.00 | 86 | 1015.6 |
| 20260506044625 | 18 | 138 | 3.2 | 3.2 | 0.00 | 0.00 | 0.00 | 86 | 1015.4 |
| 20260506044122 | 18 | 208 | 1.6 | 1.6 | 0.00 | 0.00 | 0.00 | 87 | 1015.5 |
| 20260506043619 | 18 | 170 | 4.8 | 9.7 | 0.00 | 0.00 | 0.00 | 87 | 1015.5 |
| 20260506043117 | 18 | 199 | 4.8 | 8.0 | 0.00 | 0.00 | 0.00 | 87 | 1015.7 |
| 20260506042616 | 18 | 199 | 3.2 | 4.8 | 0.00 | 0.00 | 0.00 | 87 | 1015.7 |
| 20260506042113 | 18 | 210 | 1.6 | 1.6 | 0.00 | 0.00 | 0.00 | 87 | 1015.5 |
| 20260506041612 | 18 | 258 | 0.0 | 0.0 | 0.00 | 0.00 | 0.00 | 87 | 1015.7 |
| 20260506041108 | 18 | 225 | 6.4 | 8.0 | 0.00 | 0.00 | 0.00 | 86 | 1015.7 |
| 20260506040606 | 18 | 216 | 0.0 | 1.6 | 0.00 | 0.00 | 0.00 | 86 | 1015.8 |
| 20260506035559 | 18 | 186 | 4.8 | 4.8 | 0.00 | 0.00 | 0.00 | 85 | 1015.6 |
| 20260506035056 | 18 | 168 | 4.8 | 8.0 | 0.00 | 0.00 | 0.00 | 85 | 1015.5 |
| 20260506034553 | 18 | 224 | 3.2 | 4.8 | 0.00 | 0.00 | 0.00 | 84 | 1015.5 |
| 20260506034050 | 18 | 172 | 4.8 | 8.0 | 0.00 | 0.00 | 0.00 | 84 | 1015.6 |
| 20260506033547 | 18 | 213 | 3.2 | 4.8 | 0.00 | 0.00 | 0.00 | 84 | 1015.5 |
| 20260506033044 | 18 | 168 | 8.0 | 9.7 | 0.00 | 0.00 | 0.00 | 83 | 1015.5 |
| 20260506032541 | 18 | 176 | 4.8 | 4.8 | 0.00 | 0.00 | 0.00 | 83 | 1015.6 |
| 20260506032032 | 18 | 179 | 8.0 | 11.3 | 0.00 | 0.00 | 0.00 | 82 | 1015.6 |
| 20260506031530 | 18 | 197 | 6.4 | 8.0 | 0.00 | 0.00 | 0.00 | 82 | 1015.6 |
| 20260506031027 | 18 | 185 | 4.8 | 8.0 | 0.00 | 0.00 | 0.00 | 81 | 1015.6 |
| 20260506030525 | 18 | 226 | 6.4 | 8.0 | 0.00 | 0.00 | 0.00 | 81 | 1015.6 |
| 20260506030022 | 18 | 171 | 4.8 | 9.7 | 0.00 | 0.00 | 0.00 | 81 | 1015.6 |
| 20260506025519 | 19 | 219 | 3.2 | 4.8 | 0.00 | 0.00 | 0.00 | 81 | 1015.6 |
| 20260506025015 | 19 | 190 | 4.8 | 4.8 | 0.00 | 0.00 | 0.00 | 80 | 1015.4 |
| 20260506024512 | 19 | 188 | 6.4 | 9.7 | 0.00 | 0.00 | 0.00 | 80 | 1015.8 |
| 20260506024008 | 19 | 173 | 4.8 | 8.0 | 0.00 | 0.00 | 0.00 | 79 | 1015.6 |
| 20260506023504 | 19 | 188 | 8.0 | 11.3 | 0.00 | 0.00 | 0.00 | 79 | 1015.7 |
| 20260506023002 | 19 | 172 | 8.0 | 11.3 | 0.00 | 0.00 | 0.00 | 80 | 1015.4 |
| 20260506022459 | 19 | 174 | 6.4 | 8.0 | 0.00 | 0.00 | 0.00 | 79 | 1015.6 |
| 20260506021957 | 19 | 183 | 6.4 | 9.7 | 0.00 | 0.00 | 0.00 | 79 | 1015.7 |
| 20260506021454 | 19 | 157 | 4.8 | 8.0 | 0.00 | 0.00 | 0.00 | 79 | 1015.5 |
| 20260506020951 | 20 | 186 | 4.8 | 8.0 | 0.00 | 0.00 | 0.00 | 78 | 1015.6 |
| 20260506020449 | 20 | 185 | 9.7 | 11.3 | 0.00 | 0.00 | 0.00 | 78 | 1015.6 |
| 20260506015946 | 20 | 183 | 8.0 | 9.7 | 0.00 | 0.00 | 0.00 | 76 | 1015.4 |
| 20260506015443 | 20 | 165 | 4.8 | 8.0 | 0.00 | 0.00 | 0.00 | 78 | 1015.6 |
| 20260506014940 | 20 | 171 | 6.4 | 9.7 | 0.00 | 0.00 | 0.00 | 77 | 1015.3 |
| 20260506014437 | 20 | 178 | 6.4 | 8.0 | 0.00 | 0.00 | 0.00 | 77 | 1015.3 |
| 20260506013933 | 20 | 183 | 6.4 | 9.7 | 0.00 | 0.00 | 0.00 | 77 | 1015.4 |
| 20260506013432 | 20 | 161 | 8.0 | 9.7 | 0.00 | 0.00 | 0.00 | 76 | 1015.1 |
| 20260506012928 | 20 | 173 | 8.0 | 9.7 | 0.00 | 0.00 | 0.00 | 74 | 1015.4 |
| 20260506012424 | 20 | 188 | 8.0 | 11.3 | 0.00 | 0.00 | 0.00 | 76 | 1015.3 |
| 20260506011921 | 20 | 181 | 6.4 | 8.0 | 0.00 | 0.00 | 0.00 | 76 | 1015.3 |
| 20260506011419 | 20 | 162 | 8.0 | 9.7 | 0.00 | 0.00 | 0.00 | 75 | 1015.3 |
| 20260506010915 | 20 | 185 | 6.4 | 8.0 | 0.00 | 0.00 | 0.00 | 75 | 1015.1 |
| 20260506010414 | 20 | 167 | 8.0 | 9.7 | 0.00 | 0.00 | 0.00 | 75 | 1015.1 |
| 20260506005910 | 20 | 197 | 9.7 | 12.9 | 0.00 | 0.00 | 0.00 | 75 | 1015.0 |
| 20260506005408 | 20 | 207 | 4.8 | 8.0 | 0.00 | 0.00 | 0.00 | 74 | 1014.8 |
| 20260506004903 | 20 | 218 | 4.8 | 8.0 | 0.00 | 0.00 | 0.00 | 73 | 1014.9 |
| 20260506004401 | 20 | 193 | 6.4 | 9.7 | 0.00 | 0.00 | 0.00 | 74 | 1015.1 |
| 20260506003857 | 20 | 222 | 4.8 | 8.0 | 0.00 | 0.00 | 0.00 | 73 | 1015.1 |
| 20260506003353 | 20 | 179 | 4.8 | 9.7 | 0.00 | 0.00 | 0.00 | 74 | 1014.8 |
| 20260506002850 | 21 | 205 | 4.8 | 4.8 | 0.00 | 0.00 | 0.00 | 75 | 1014.8 |
| 20260506002346 | 21 | 182 | 8.0 | 11.3 | 0.00 | 0.00 | 0.00 | 74 | 1014.6 |
| 20260506001841 | 21 | 184 | 6.4 | 8.0 | 0.00 | 0.00 | 0.00 | 73 | 1014.7 |
| 20260506001339 | 21 | 223 | 6.4 | 8.0 | 0.00 | 0.00 | 0.00 | 73 | 1014.5 |
| 20260506000836 | 21 | 168 | 4.8 | 4.8 | 0.00 | 0.00 | 0.00 | 72 | 1014.9 |
| 20260506000334 | 21 | 182 | 9.7 | 11.3 | 0.00 | 0.00 | 0.00 | 71 | 1014.8 |
| 20260505235830 | 21 | 186 | 8.0 | 9.7 | 0.00 | 0.00 | 0.00 | 70 | 1014.8 |
| 20260505235328 | 21 | 185 | 8.0 | 11.3 | 0.00 | 0.00 | 0.00 | 72 | 1014.6 |
| 20260505234824 | 21 | 191 | 8.0 | 8.0 | 0.00 | 0.00 | 0.00 | 72 | 1014.5 |
| 20260505234322 | 21 | 358 | 6.4 | 9.7 | 0.00 | 0.00 | 0.00 | 71 | 1014.4 |
| 20260505233819 | 21 | 165 | 6.4 | 8.0 | 0.00 | 0.00 | 0.00 | 71 | 1014.5 |
| 20260505233317 | 21 | 183 | 8.0 | 11.3 | 0.00 | 0.00 | 0.00 | 70 | 1014.2 |
| 20260505232814 | 21 | 150 | 11.3 | 16.1 | 0.00 | 0.00 | 0.00 | 69 | 1014.3 |
| 20260505232311 | 21 | 181 | 8.0 | 9.7 | 0.00 | 0.00 | 0.00 | 71 | 1014.3 |
| 20260505231808 | 22 | 175 | 8.0 | 11.3 | 0.00 | 0.00 | 0.00 | 70 | 1014.1 |
| 20260505231306 | 22 | 176 | 11.3 | 14.5 | 0.00 | 0.00 | 0.00 | 68 | 1014.1 |
| 20260505230804 | 22 | 170 | 8.0 | 9.7 | 0.00 | 0.00 | 0.00 | 69 | 1014.0 |
| 20260505230300 | 22 | 194 | 11.3 | 14.5 | 0.00 | 0.00 | 0.00 | 68 | 1014.0 |
| 20260505225757 | 22 | 135 | 9.7 | 11.3 | 0.00 | 0.00 | 0.00 | 67 | 1014.1 |